Wetterdaten: Donnerstag, 15.08.2013
Datum Zeit Temperatur Luftfeuchte Luftdruck Regen Wind Richtung Richtung Taupunkt Windchill Windben
15.08.2013 00:00 12,2 C 77 % 1025,6 hPa 0,0 l/m 3,1 km/h (1 Bft) O 90 8,3 C 12,1 C 4,5 km/h (1 Bft)
15.08.2013 00:05 12,1 C 77 % 1025,6 hPa 0,0 l/m 3,9 km/h (1 Bft) O 90 8,2 C 12,1 C 3,2 km/h (1 Bft)
15.08.2013 00:10 12,1 C 78 % 1025,6 hPa 0,0 l/m 3,4 km/h (1 Bft) O 90 8,4 C 12,1 C 2,4 km/h (1 Bft)
15.08.2013 00:15 12,0 C 78 % 1025,6 hPa 0,0 l/m 2,4 km/h (1 Bft) O-SO 112 8,3 C 11,9 C 4,0 km/h (1 Bft)
15.08.2013 00:20 12,0 C 79 % 1025,8 hPa 0,0 l/m 2,3 km/h (1 Bft) O-NO 67 8,5 C 11,9 C 1,9 km/h (1 Bft)
15.08.2013 00:25 12,0 C 79 % 1025,8 hPa 0,0 l/m 2,6 km/h (1 Bft) O-NO 67 8,5 C 11,9 C 3,2 km/h (1 Bft)
15.08.2013 00:30 12,0 C 78 % 1025,8 hPa 0,0 l/m 2,9 km/h (1 Bft) O 90 8,3 C 11,9 C 3,2 km/h (1 Bft)
15.08.2013 00:35 12,0 C 78 % 1025,8 hPa 0,0 l/m 2,7 km/h (1 Bft) O 90 8,3 C 11,9 C 2,1 km/h (1 Bft)
15.08.2013 00:40 11,9 C 79 % 1025,8 hPa 0,0 l/m 1,8 km/h (1 Bft) O-SO 112 8,4 C 11,8 C 0,0 km/h (0 Bft)
15.08.2013 00:45 11,9 C 78 % 1025,8 hPa 0,0 l/m 0,8 km/h (0 Bft) O-NO 67 8,2 C 11,7 C 0,0 km/h (0 Bft)
15.08.2013 00:50 11,8 C 79 % 1025,8 hPa 0,0 l/m 0,3 km/h (0 Bft) NO 45 8,3 C 11,7 C 0,0 km/h (0 Bft)
15.08.2013 00:55 11,8 C 79 % 1025,8 hPa 0,0 l/m 0,0 km/h (0 Bft) NO 45 8,3 C 11,5 C 0,0 km/h (0 Bft)
15.08.2013 01:00 11,7 C 79 % 1025,8 hPa 0,0 l/m 0,0 km/h (0 Bft) O 90 8,2 C 11,5 C 0,0 km/h (0 Bft)
15.08.2013 01:05 11,8 C 79 % 1025,8 hPa 0,0 l/m 0,0 km/h (0 Bft) O 90 8,3 C 11,4 C 0,0 km/h (0 Bft)
15.08.2013 01:10 11,8 C 79 % 1025,8 hPa 0,0 l/m 0,0 km/h (0 Bft) NO 45 8,3 C 11,4 C 0,0 km/h (0 Bft)
15.08.2013 01:15 11,8 C 79 % 1025,8 hPa 0,0 l/m 0,3 km/h (0 Bft) O 90 8,3 C 11,4 C 1,6 km/h (1 Bft)
15.08.2013 01:20 11,7 C 79 % 1025,7 hPa 0,0 l/m 0,3 km/h (0 Bft) O 90 8,2 C 11,4 C 0,0 km/h (0 Bft)
15.08.2013 01:25 11,7 C 79 % 1025,7 hPa 0,0 l/m 0,3 km/h (0 Bft) O 90 8,2 C 11,4 C 0,0 km/h (0 Bft)
15.08.2013 01:30 11,6 C 79 % 1025,7 hPa 0,0 l/m 0,2 km/h (0 Bft) O 90 8,1 C 11,4 C 0,0 km/h (0 Bft)
15.08.2013 01:35 11,5 C 79 % 1025,7 hPa 0,0 l/m 0,2 km/h (0 Bft) O 90 8,0 C 11,2 C 1,6 km/h (1 Bft)
15.08.2013 01:40 11,5 C 80 % 1025,4 hPa 0,0 l/m 1,0 km/h (0 Bft) O-NO 67 8,2 C 11,2 C 0,0 km/h (0 Bft)
15.08.2013 01:45 11,4 C 80 % 1025,4 hPa 0,0 l/m 0,6 km/h (0 Bft) O-NO 67 8,1 C 11,1 C 0,0 km/h (0 Bft)
15.08.2013 01:50 11,4 C 79 % 1025,4 hPa 0,0 l/m 0,2 km/h (0 Bft) O 90 7,9 C 11,1 C 0,0 km/h (0 Bft)
15.08.2013 01:55 11,3 C 80 % 1025,4 hPa 0,0 l/m 0,2 km/h (0 Bft) O-SO 112 8,0 C 11,0 C 0,0 km/h (0 Bft)
15.08.2013 02:00 11,3 C 80 % 1025,2 hPa 0,0 l/m 0,3 km/h (0 Bft) O-NO 67 8,0 C 11,0 C 1,6 km/h (1 Bft)
15.08.2013 02:05 11,2 C 81 % 1025,2 hPa 0,0 l/m 0,3 km/h (0 Bft) O 90 8,1 C 10,9 C 0,0 km/h (0 Bft)
15.08.2013 02:10 11,2 C 81 % 1025,2 hPa 0,0 l/m 0,3 km/h (0 Bft) O 90 8,1 C 10,8 C 0,0 km/h (0 Bft)
15.08.2013 02:15 11,1 C 81 % 1025,2 hPa 0,0 l/m 0,2 km/h (0 Bft) O 90 8,0 C 10,8 C 0,0 km/h (0 Bft)
15.08.2013 02:20 11,1 C 81 % 1025,1 hPa 0,0 l/m 0,2 km/h (0 Bft) O-NO 67 8,0 C 10,8 C 0,0 km/h (0 Bft)
15.08.2013 02:25 11,1 C 82 % 1025,1 hPa 0,0 l/m 0,2 km/h (0 Bft) O 90 8,1 C 10,7 C 1,8 km/h (1 Bft)
15.08.2013 02:30 11,1 C 82 % 1025,1 hPa 0,0 l/m 0,3 km/h (0 Bft) O-NO 67 8,1 C 10,7 C 0,0 km/h (0 Bft)
15.08.2013 02:35 11,0 C 82 % 1025,1 hPa 0,0 l/m 0,3 km/h (0 Bft) O-SO 112 8,0 C 10,7 C 0,0 km/h (0 Bft)
15.08.2013 02:40 10,9 C 82 % 1025,0 hPa 0,0 l/m 0,0 km/h (0 Bft) O-SO 112 7,9 C 10,7 C 0,0 km/h (0 Bft)
15.08.2013 02:45 10,9 C 82 % 1025,0 hPa 0,0 l/m 0,0 km/h (0 Bft) O 90 7,9 C 10,5 C 0,0 km/h (0 Bft)
15.08.2013 02:50 10,9 C 83 % 1025,0 hPa 0,0 l/m 0,0 km/h (0 Bft) O 90 8,1 C 10,5 C 0,0 km/h (0 Bft)
15.08.2013 02:55 11,1 C 83 % 1025,0 hPa 0,0 l/m 0,0 km/h (0 Bft) NO 45 8,3 C 10,6 C 0,0 km/h (0 Bft)
15.08.2013 03:00 11,1 C 83 % 1025,0 hPa 0,0 l/m 0,5 km/h (0 Bft) O 90 8,3 C 10,7 C 2,3 km/h (1 Bft)
15.08.2013 03:05 11,2 C 83 % 1025,0 hPa 0,0 l/m 1,4 km/h (1 Bft) O-SO 112 8,4 C 10,8 C 0,0 km/h (0 Bft)
15.08.2013 03:10 11,1 C 83 % 1025,0 hPa 0,0 l/m 1,1 km/h (1 Bft) O-SO 112 8,3 C 10,7 C 0,0 km/h (0 Bft)
15.08.2013 03:15 11,0 C 83 % 1025,0 hPa 0,0 l/m 0,0 km/h (0 Bft) NO 45 8,2 C 10,7 C 0,0 km/h (0 Bft)
15.08.2013 03:20 11,0 C 84 % 1024,8 hPa 0,0 l/m 0,0 km/h (0 Bft) O 90 8,4 C 10,6 C 0,0 km/h (0 Bft)
15.08.2013 03:25 10,9 C 84 % 1024,8 hPa 0,0 l/m 0,0 km/h (0 Bft) O-NO 67 8,3 C 10,5 C 0,0 km/h (0 Bft)
15.08.2013 03:30 10,9 C 84 % 1024,8 hPa 0,0 l/m 0,2 km/h (0 Bft) NO 45 8,3 C 10,4 C 0,0 km/h (0 Bft)
15.08.2013 03:35 10,7 C 84 % 1024,8 hPa 0,0 l/m 0,2 km/h (0 Bft) NO 45 8,1 C 10,4 C 0,0 km/h (0 Bft)
15.08.2013 03:40 10,7 C 84 % 1024,6 hPa 0,0 l/m 0,0 km/h (0 Bft) O 90 8,1 C 10,4 C 0,0 km/h (0 Bft)
15.08.2013 03:45 10,7 C 84 % 1024,6 hPa 0,0 l/m 0,0 km/h (0 Bft) O-NO 67 8,1 C 10,3 C 0,0 km/h (0 Bft)
15.08.2013 03:50 10,6 C 83 % 1024,6 hPa 0,0 l/m 0,0 km/h (0 Bft) O 90 7,8 C 10,2 C 0,0 km/h (0 Bft)
15.08.2013 03:55 10,6 C 84 % 1024,6 hPa 0,0 l/m 0,2 km/h (0 Bft) O 90 8,0 C 10,2 C 1,9 km/h (1 Bft)
15.08.2013 04:00 10,7 C 84 % 1024,6 hPa 0,0 l/m 0,3 km/h (0 Bft) NO 45 8,1 C 10,2 C 1,6 km/h (1 Bft)
15.08.2013 04:05 10,6 C 84 % 1024,6 hPa 0,0 l/m 0,8 km/h (0 Bft) O 90 8,0 C 10,2 C 2,1 km/h (1 Bft)
15.08.2013 04:10 10,6 C 84 % 1024,6 hPa 0,0 l/m 1,1 km/h (1 Bft) O 90 8,0 C 10,2 C 2,3 km/h (1 Bft)
15.08.2013 04:15 10,3 C 84 % 1024,6 hPa 0,0 l/m 2,1 km/h (1 Bft) O 90 7,7 C 10,2 C 2,3 km/h (1 Bft)
15.08.2013 04:20 10,2 C 84 % 1024,7 hPa 0,0 l/m 1,8 km/h (1 Bft) NO 45 7,6 C 10,0 C 0,0 km/h (0 Bft)
15.08.2013 04:25 9,9 C 84 % 1024,7 hPa 0,0 l/m 1,1 km/h (1 Bft) O-NO 67 7,3 C 9,7 C 0,0 km/h (0 Bft)
15.08.2013 04:30 9,8 C 84 % 1024,7 hPa 0,0 l/m 1,1 km/h (1 Bft) O 90 7,2 C 9,4 C 2,4 km/h (1 Bft)
15.08.2013 04:35 9,7 C 84 % 1024,7 hPa 0,0 l/m 2,3 km/h (1 Bft) NO 45 7,1 C 9,2 C 2,9 km/h (1 Bft)
15.08.2013 04:40 9,6 C 85 % 1024,4 hPa 0,0 l/m 2,9 km/h (1 Bft) O 90 7,2 C 9,1 C 3,9 km/h (1 Bft)
15.08.2013 04:45 9,5 C 85 % 1024,4 hPa 0,0 l/m 3,2 km/h (1 Bft) O 90 7,1 C 9,0 C 4,2 km/h (1 Bft)
15.08.2013 04:50 9,3 C 85 % 1024,4 hPa 0,0 l/m 2,7 km/h (1 Bft) O-SO 112 6,9 C 8,9 C 3,1 km/h (1 Bft)
15.08.2013 04:55 9,0 C 85 % 1024,4 hPa 0,0 l/m 1,4 km/h (1 Bft) O 90 6,6 C 8,7 C 1,6 km/h (1 Bft)
15.08.2013 05:00 9,0 C 85 % 1024,4 hPa 0,0 l/m 1,6 km/h (1 Bft) O-SO 112 6,6 C 8,8 C 2,3 km/h (1 Bft)
15.08.2013 05:05 9,1 C 86 % 1024,4 hPa 0,0 l/m 1,8 km/h (1 Bft) O 90 6,9 C 8,6 C 1,9 km/h (1 Bft)
15.08.2013 05:10 9,0 C 86 % 1024,4 hPa 0,0 l/m 1,1 km/h (1 Bft) O-SO 112 6,8 C 8,5 C 0,0 km/h (0 Bft)
15.08.2013 05:15 8,5 C 86 % 1024,4 hPa 0,0 l/m 0,2 km/h (0 Bft) NO 45 6,3 C 8,2 C 0,0 km/h (0 Bft)
15.08.2013 05:20 8,2 C 86 % 1024,6 hPa 0,0 l/m 0,0 km/h (0 Bft) NO 45 6,0 C 8,0 C 0,0 km/h (0 Bft)
15.08.2013 05:25 8,3 C 87 % 1024,6 hPa 0,0 l/m 0,2 km/h (0 Bft) NO 45 6,3 C 7,8 C 1,6 km/h (1 Bft)
15.08.2013 05:30 8,4 C 87 % 1024,6 hPa 0,0 l/m 0,2 km/h (0 Bft) NO 45 6,4 C 7,8 C 0,0 km/h (0 Bft)
15.08.2013 05:35 8,0 C 87 % 1024,6 hPa 0,0 l/m 0,2 km/h (0 Bft) NO 45 6,0 C 7,8 C 0,0 km/h (0 Bft)
15.08.2013 05:40 7,9 C 87 % 1024,5 hPa 0,0 l/m 0,0 km/h (0 Bft) NO 45 5,9 C 7,7 C 0,0 km/h (0 Bft)
15.08.2013 05:45 7,8 C 88 % 1024,5 hPa 0,0 l/m 0,0 km/h (0 Bft) O-SO 112 5,9 C 7,5 C 0,0 km/h (0 Bft)
15.08.2013 05:50 7,8 C 88 % 1024,5 hPa 0,0 l/m 0,0 km/h (0 Bft) O 90 5,9 C 7,4 C 0,0 km/h (0 Bft)
15.08.2013 05:55 7,9 C 88 % 1024,5 hPa 0,0 l/m 0,0 km/h (0 Bft) O 90 6,0 C 7,4 C 0,0 km/h (0 Bft)
15.08.2013 06:00 7,9 C 88 % 1024,6 hPa 0,0 l/m 0,0 km/h (0 Bft) O 90 6,0 C 7,4 C 0,0 km/h (0 Bft)
15.08.2013 06:05 7,7 C 88 % 1024,6 hPa 0,0 l/m 0,0 km/h (0 Bft) NO 45 5,8 C 7,3 C 0,0 km/h (0 Bft)
15.08.2013 06:10 7,5 C 88 % 1024,6 hPa 0,0 l/m 0,0 km/h (0 Bft) NO 45 5,6 C 7,3 C 0,0 km/h (0 Bft)
15.08.2013 06:15 7,3 C 88 % 1024,6 hPa 0,0 l/m 0,0 km/h (0 Bft) NO 45 5,4 C 7,3 C 0,0 km/h (0 Bft)
15.08.2013 06:20 7,2 C 88 % 1024,4 hPa 0,0 l/m 0,0 km/h (0 Bft) N-NO 22 5,3 C 7,2 C 0,0 km/h (0 Bft)
15.08.2013 06:25 7,2 C 88 % 1024,4 hPa 0,0 l/m 0,0 km/h (0 Bft) N-NO 22 5,3 C 7,2 C 0,0 km/h (0 Bft)
15.08.2013 06:30 7,2 C 88 % 1024,4 hPa 0,0 l/m 0,0 km/h (0 Bft) O-SO 112 5,3 C 7,1 C 0,0 km/h (0 Bft)
15.08.2013 06:35 7,6 C 89 % 1024,4 hPa 0,0 l/m 0,0 km/h (0 Bft) SO 135 5,9 C 7,1 C 0,0 km/h (0 Bft)
15.08.2013 06:40 7,6 C 89 % 1024,5 hPa 0,0 l/m 0,0 km/h (0 Bft) N-NO 22 5,9 C 7,2 C 0,0 km/h (0 Bft)
15.08.2013 06:45 7,5 C 89 % 1024,5 hPa 0,0 l/m 0,0 km/h (0 Bft) N-NO 22 5,8 C 7,8 C 0,0 km/h (0 Bft)
15.08.2013 06:50 7,5 C 89 % 1024,5 hPa 0,0 l/m 0,0 km/h (0 Bft) N-NO 22 5,8 C 8,2 C 0,0 km/h (0 Bft)
15.08.2013 06:55 7,8 C 90 % 1024,5 hPa 0,0 l/m 0,2 km/h (0 Bft) NO 45 6,3 C 8,9 C 0,0 km/h (0 Bft)
15.08.2013 07:00 7,9 C 90 % 1024,8 hPa 0,0 l/m 0,2 km/h (0 Bft) N-NO 22 6,4 C 9,4 C 0,0 km/h (0 Bft)
15.08.2013 07:05 8,1 C 89 % 1024,8 hPa 0,0 l/m 0,0 km/h (0 Bft) N-NO 22 6,4 C 10,3 C 0,0 km/h (0 Bft)
15.08.2013 07:10 8,2 C 90 % 1024,8 hPa 0,0 l/m 0,0 km/h (0 Bft) N-NO 22 6,7 C 10,9 C 0,0 km/h (0 Bft)
15.08.2013 07:15 8,3 C 90 % 1024,8 hPa 0,0 l/m 0,0 km/h (0 Bft) N-NO 22 6,8 C 11,8 C 0,0 km/h (0 Bft)
15.08.2013 07:20 8,4 C 90 % 1024,9 hPa 0,0 l/m 0,0 km/h (0 Bft) N-NO 22 6,9 C 12,4 C 0,0 km/h (0 Bft)
15.08.2013 07:25 8,6 C 90 % 1024,9 hPa 0,0 l/m 0,0 km/h (0 Bft) N-NO 22 7,1 C 13,3 C 0,0 km/h (0 Bft)
15.08.2013 07:30 8,9 C 90 % 1024,9 hPa 0,0 l/m 0,0 km/h (0 Bft) N-NO 22 7,4 C 14,0 C 0,0 km/h (0 Bft)
15.08.2013 07:35 9,4 C 89 % 1024,9 hPa 0,0 l/m 0,0 km/h (0 Bft) N-NO 22 7,7 C 15,0 C 0,0 km/h (0 Bft)
15.08.2013 07:40 10,2 C 89 % 1025,0 hPa 0,0 l/m 0,0 km/h (0 Bft) N-NO 22 8,5 C 15,4 C 0,0 km/h (0 Bft)
15.08.2013 07:45 12,8 C 88 % 1025,0 hPa 0,0 l/m 0,0 km/h (0 Bft) O 90 10,9 C 15,9 C 0,0 km/h (0 Bft)
15.08.2013 07:50 14,2 C 85 % 1025,0 hPa 0,0 l/m 0,0 km/h (0 Bft) W-SW 247 11,7 C 16,2 C 0,0 km/h (0 Bft)
15.08.2013 07:55 15,6 C 81 % 1025,0 hPa 0,0 l/m 0,0 km/h (0 Bft) W-SW 247 12,3 C 16,2 C 0,0 km/h (0 Bft)
15.08.2013 08:00 16,0 C 78 % 1025,1 hPa 0,0 l/m 0,0 km/h (0 Bft) SO 135 12,2 C 16,7 C 0,0 km/h (0 Bft)
15.08.2013 08:05 16,5 C 73 % 1025,1 hPa 0,0 l/m 0,0 km/h (0 Bft) O-NO 67 11,6 C 17,2 C 0,0 km/h (0 Bft)
15.08.2013 08:10 16,6 C 70 % 1025,1 hPa 0,0 l/m 0,0 km/h (0 Bft) O 90 11,1 C 17,5 C 0,0 km/h (0 Bft)
15.08.2013 08:15 17,1 C 67 % 1025,1 hPa 0,0 l/m 0,0 km/h (0 Bft) SO 135 10,9 C 18,4 C 0,0 km/h (0 Bft)
15.08.2013 08:20 17,5 C 66 % 1025,2 hPa 0,0 l/m 0,0 km/h (0 Bft) S 180 11,1 C 19,0 C 0,0 km/h (0 Bft)
15.08.2013 08:25 18,3 C 64 % 1025,2 hPa 0,0 l/m 0,2 km/h (0 Bft) S-SW 202 11,4 C 19,6 C 0,0 km/h (0 Bft)
15.08.2013 08:30 18,4 C 62 % 1025,2 hPa 0,0 l/m 0,2 km/h (0 Bft) O-SO 112 11,0 C 19,9 C 0,0 km/h (0 Bft)
15.08.2013 08:35 19,1 C 61 % 1025,2 hPa 0,0 l/m 0,0 km/h (0 Bft) S-SW 202 11,4 C 20,3 C 0,0 km/h (0 Bft)
15.08.2013 08:40 19,9 C 60 % 1025,3 hPa 0,0 l/m 0,0 km/h (0 Bft) W-SW 247 11,9 C 20,6 C 1,8 km/h (1 Bft)
15.08.2013 08:45 19,6 C 58 % 1025,3 hPa 0,0 l/m 0,0 km/h (0 Bft) S-SW 202 11,1 C 21,2 C 0,0 km/h (0 Bft)
15.08.2013 08:50 19,8 C 57 % 1025,3 hPa 0,0 l/m 0,0 km/h (0 Bft) SO 135 11,0 C 21,6 C 0,0 km/h (0 Bft)
15.08.2013 08:55 19,8 C 57 % 1025,3 hPa 0,0 l/m 0,3 km/h (0 Bft) W-SW 247 11,0 C 21,9 C 3,1 km/h (1 Bft)
15.08.2013 09:00 19,8 C 55 % 1025,4 hPa 0,0 l/m 1,0 km/h (0 Bft) W-NW 292 10,5 C 21,4 C 0,0 km/h (0 Bft)
15.08.2013 09:05 20,5 C 54 % 1025,4 hPa 0,0 l/m 2,6 km/h (1 Bft) W 270 10,9 C 20,6 C 5,0 km/h (1 Bft)
15.08.2013 09:10 21,2 C 54 % 1025,4 hPa 0,0 l/m 2,4 km/h (1 Bft) W-NW 292 11,5 C 20,5 C 5,0 km/h (1 Bft)
15.08.2013 09:15 20,8 C 52 % 1025,4 hPa 0,0 l/m 1,9 km/h (1 Bft) N 360 10,6 C 20,6 C 0,0 km/h (0 Bft)
15.08.2013 09:20 21,1 C 50 % 1025,5 hPa 0,0 l/m 1,9 km/h (1 Bft) NW 315 10,3 C 20,9 C 0,0 km/h (0 Bft)
15.08.2013 09:25 21,7 C 51 % 1025,5 hPa 0,0 l/m 1,6 km/h (1 Bft) W 270 11,1 C 21,4 C 3,1 km/h (1 Bft)
15.08.2013 09:30 21,2 C 49 % 1025,5 hPa 0,0 l/m 2,1 km/h (1 Bft) W-NW 292 10,1 C 21,2 C 6,1 km/h (2 Bft)
15.08.2013 09:35 20,9 C 49 % 1025,5 hPa 0,0 l/m 3,4 km/h (1 Bft) NW 315 9,8 C 20,8 C 4,2 km/h (1 Bft)
15.08.2013 09:40 21,7 C 50 % 1025,6 hPa 0,0 l/m 2,6 km/h (1 Bft) W-NW 292 10,8 C 21,0 C 2,7 km/h (1 Bft)
15.08.2013 09:45 21,7 C 48 % 1025,6 hPa 0,0 l/m 2,7 km/h (1 Bft) W-NW 292 10,2 C 21,1 C 4,3 km/h (1 Bft)
15.08.2013 09:50 21,3 C 48 % 1025,6 hPa 0,0 l/m 2,9 km/h (1 Bft) O-NO 67 9,8 C 21,3 C 8,9 km/h (2 Bft)
15.08.2013 09:55 20,6 C 46 % 1025,6 hPa 0,0 l/m 2,6 km/h (1 Bft) W-NW 292 8,6 C 21,6 C 4,0 km/h (1 Bft)
15.08.2013 10:00 21,0 C 47 % 1025,9 hPa 0,0 l/m 2,9 km/h (1 Bft) NO 45 9,3 C 21,7 C 5,1 km/h (1 Bft)
15.08.2013 10:05 20,8 C 46 % 1025,9 hPa 0,0 l/m 3,7 km/h (1 Bft) N-NO 22 8,8 C 21,2 C 1,6 km/h (1 Bft)
15.08.2013 10:10 20,6 C 47 % 1025,9 hPa 0,0 l/m 3,9 km/h (1 Bft) W-SW 247 8,9 C 21,1 C 3,7 km/h (1 Bft)
15.08.2013 10:15 20,1 C 46 % 1025,9 hPa 0,0 l/m 3,4 km/h (1 Bft) W 270 8,1 C 21,4 C 3,4 km/h (1 Bft)
15.08.2013 10:20 20,4 C 46 % 1026,1 hPa 0,0 l/m 3,5 km/h (1 Bft) W 270 8,4 C 21,6 C 4,8 km/h (1 Bft)
15.08.2013 10:25 19,9 C 46 % 1026,1 hPa 0,0 l/m 4,2 km/h (1 Bft) W 270 7,9 C 21,3 C 9,8 km/h (2 Bft)
15.08.2013 10:30 20,0 C 46 % 1026,1 hPa 0,0 l/m 4,2 km/h (1 Bft) N-NW 337 8,0 C 21,4 C 2,4 km/h (1 Bft)
15.08.2013 10:35 20,2 C 47 % 1026,1 hPa 0,0 l/m 4,0 km/h (1 Bft) W-NW 292 8,5 C 21,4 C 10,1 km/h (2 Bft)
15.08.2013 10:40 20,5 C 47 % 1026,6 hPa 0,0 l/m 3,9 km/h (1 Bft) W-NW 292 8,8 C 21,3 C 3,1 km/h (1 Bft)
15.08.2013 10:45 20,4 C 45 % 1026,6 hPa 0,0 l/m 4,2 km/h (1 Bft) NW 315 8,1 C 21,4 C 7,9 km/h (2 Bft)
15.08.2013 10:50 20,5 C 46 % 1026,6 hPa 0,0 l/m 5,3 km/h (1 Bft) N-NO 22 8,5 C 21,0 C 9,8 km/h (2 Bft)
15.08.2013 10:55 20,5 C 46 % 1026,6 hPa 0,0 l/m 5,0 km/h (1 Bft) N-NW 337 8,5 C 21,1 C 4,2 km/h (1 Bft)
15.08.2013 11:00 20,2 C 46 % 1026,8 hPa 0,0 l/m 4,2 km/h (1 Bft) N-NW 337 8,2 C 21,3 C 3,5 km/h (1 Bft)
15.08.2013 11:05 20,1 C 46 % 1026,8 hPa 0,0 l/m 4,7 km/h (1 Bft) NW 315 8,1 C 21,1 C 10,9 km/h (2 Bft)
15.08.2013 11:10 20,3 C 45 % 1026,8 hPa 0,0 l/m 5,1 km/h (1 Bft) W-NW 292 8,0 C 21,1 C 7,1 km/h (2 Bft)
15.08.2013 11:15 20,8 C 45 % 1026,8 hPa 0,0 l/m 5,3 km/h (1 Bft) N-NW 337 8,4 C 21,3 C 10,1 km/h (2 Bft)
15.08.2013 11:20 20,6 C 46 % 1026,6 hPa 0,0 l/m 5,3 km/h (1 Bft) N-NO 22 8,6 C 21,2 C 4,5 km/h (1 Bft)
15.08.2013 11:25 21,5 C 47 % 1026,6 hPa 0,0 l/m 6,0 km/h (2 Bft) NW 315 9,7 C 20,8 C 14,6 km/h (3 Bft)
15.08.2013 11:30 21,1 C 44 % 1026,6 hPa 0,0 l/m 5,3 km/h (1 Bft) NW 315 8,4 C 20,8 C 6,9 km/h (2 Bft)
15.08.2013 11:35 21,0 C 46 % 1026,6 hPa 0,0 l/m 5,3 km/h (1 Bft) N-NW 337 8,9 C 20,3 C 8,0 km/h (2 Bft)
15.08.2013 11:40 21,9 C 45 % 1026,5 hPa 0,0 l/m 5,6 km/h (1 Bft) W-SW 247 9,4 C 20,0 C 3,1 km/h (1 Bft)
15.08.2013 11:45 21,9 C 44 % 1026,5 hPa 0,0 l/m 4,5 km/h (1 Bft) W-SW 247 9,1 C 20,1 C 2,6 km/h (1 Bft)
15.08.2013 11:50 21,5 C 43 % 1026,5 hPa 0,0 l/m 4,0 km/h (1 Bft) O 90 8,4 C 20,5 C 7,7 km/h (2 Bft)
15.08.2013 11:55 21,4 C 45 % 1026,5 hPa 0,0 l/m 3,5 km/h (1 Bft) N-NW 337 9,0 C 21,3 C 3,1 km/h (1 Bft)
15.08.2013 12:00 21,2 C 45 % 1026,4 hPa 0,0 l/m 4,2 km/h (1 Bft) O-SO 112 8,8 C 21,7 C 3,1 km/h (1 Bft)
15.08.2013 12:05 21,6 C 46 % 1026,4 hPa 0,0 l/m 4,7 km/h (1 Bft) W 270 9,5 C 22,2 C 5,5 km/h (1 Bft)
15.08.2013 12:10 21,6 C 44 % 1026,4 hPa 0,0 l/m 5,3 km/h (1 Bft) NO 45 8,8 C 22,0 C 4,5 km/h (1 Bft)
15.08.2013 12:15 21,5 C 44 % 1026,4 hPa 0,0 l/m 6,3 km/h (2 Bft) W-NW 292 8,7 C 21,8 C 7,7 km/h (2 Bft)
15.08.2013 12:20 21,4 C 46 % 1026,1 hPa 0,0 l/m 6,3 km/h (2 Bft) W-SW 247 9,3 C 21,6 C 8,0 km/h (2 Bft)
15.08.2013 12:25 21,8 C 45 % 1026,1 hPa 0,0 l/m 5,8 km/h (2 Bft) W-NW 292 9,3 C 22,0 C 4,2 km/h (1 Bft)
15.08.2013 12:30 21,7 C 45 % 1026,1 hPa 0,0 l/m 5,3 km/h (1 Bft) W-NW 292 9,2 C 22,3 C 13,4 km/h (3 Bft)
15.08.2013 12:35 21,6 C 46 % 1026,1 hPa 0,0 l/m 5,1 km/h (1 Bft) N-NW 337 9,5 C 22,4 C 6,6 km/h (2 Bft)
15.08.2013 12:40 21,2 C 46 % 1026,3 hPa 0,0 l/m 5,5 km/h (1 Bft) W-NW 292 9,1 C 22,5 C 8,0 km/h (2 Bft)
15.08.2013 12:45 21,5 C 45 % 1026,3 hPa 0,0 l/m 6,1 km/h (2 Bft) SW 225 9,1 C 22,2 C 3,9 km/h (1 Bft)
15.08.2013 12:50 21,9 C 46 % 1026,3 hPa 0,0 l/m 5,6 km/h (1 Bft) NW 315 9,7 C 22,3 C 3,7 km/h (1 Bft)
15.08.2013 12:55 21,8 C 47 % 1026,3 hPa 0,0 l/m 4,7 km/h (1 Bft) NO 45 10,0 C 22,8 C 5,1 km/h (1 Bft)
15.08.2013 13:00 22,0 C 44 % 1026,3 hPa 0,0 l/m 4,5 km/h (1 Bft) NW 315 9,2 C 23,0 C 3,7 km/h (1 Bft)
15.08.2013 13:05 21,5 C 46 % 1026,3 hPa 0,0 l/m 4,2 km/h (1 Bft) W-NW 292 9,4 C 23,3 C 5,0 km/h (1 Bft)
15.08.2013 13:10 21,5 C 46 % 1026,3 hPa 0,0 l/m 4,3 km/h (1 Bft) N-NW 337 9,4 C 23,4 C 6,9 km/h (2 Bft)
15.08.2013 13:15 21,5 C 46 % 1026,3 hPa 0,0 l/m 4,8 km/h (1 Bft) NW 315 9,4 C 23,5 C 8,5 km/h (2 Bft)
15.08.2013 13:20 21,9 C 46 % 1026,1 hPa 0,0 l/m 5,3 km/h (1 Bft) NW 315 9,7 C 23,2 C 10,6 km/h (2 Bft)
15.08.2013 13:25 21,8 C 47 % 1026,1 hPa 0,0 l/m 5,3 km/h (1 Bft) W-SW 247 10,0 C 23,1 C 1,6 km/h (1 Bft)
15.08.2013 13:30 21,8 C 46 % 1026,1 hPa 0,0 l/m 4,8 km/h (1 Bft) O 90 9,7 C 23,4 C 3,1 km/h (1 Bft)
15.08.2013 13:35 21,8 C 48 % 1026,1 hPa 0,0 l/m 4,0 km/h (1 Bft) NW 315 10,3 C 24,0 C 5,8 km/h (2 Bft)
15.08.2013 13:40 21,7 C 45 % 1025,9 hPa 0,0 l/m 4,2 km/h (1 Bft) W-SW 247 9,2 C 23,8 C 8,7 km/h (2 Bft)
15.08.2013 13:45 22,3 C 45 % 1025,9 hPa 0,0 l/m 5,1 km/h (1 Bft) W-NW 292 9,8 C 23,5 C 5,8 km/h (2 Bft)
15.08.2013 13:50 22,6 C 45 % 1025,9 hPa 0,0 l/m 5,1 km/h (1 Bft) NW 315 10,1 C 23,6 C 7,7 km/h (2 Bft)
15.08.2013 13:55 22,6 C 45 % 1025,9 hPa 0,0 l/m 4,7 km/h (1 Bft) N-NW 337 10,1 C 23,9 C 7,7 km/h (2 Bft)
15.08.2013 14:00 22,4 C 45 % 1025,8 hPa 0,0 l/m 4,8 km/h (1 Bft) W 270 9,9 C 23,8 C 5,5 km/h (1 Bft)
15.08.2013 14:05 22,4 C 45 % 1025,8 hPa 0,0 l/m 4,7 km/h (1 Bft) W 270 9,9 C 23,9 C 5,0 km/h (1 Bft)
15.08.2013 14:10 21,7 C 43 % 1025,8 hPa 0,0 l/m 4,7 km/h (1 Bft) O-NO 67 8,6 C 23,9 C 7,1 km/h (2 Bft)
15.08.2013 14:15 22,0 C 45 % 1025,8 hPa 0,0 l/m 5,0 km/h (1 Bft) N 360 9,5 C 23,9 C 4,2 km/h (1 Bft)
15.08.2013 14:20 22,1 C 45 % 1025,5 hPa 0,0 l/m 5,0 km/h (1 Bft) N-NW 337 9,6 C 23,8 C 8,9 km/h (2 Bft)
15.08.2013 14:25 22,3 C 45 % 1025,5 hPa 0,0 l/m 5,5 km/h (1 Bft) W-NW 292 9,8 C 23,5 C 7,4 km/h (2 Bft)
15.08.2013 14:30 22,4 C 44 % 1025,5 hPa 0,0 l/m 5,5 km/h (1 Bft) NW 315 9,5 C 23,6 C 7,4 km/h (2 Bft)
15.08.2013 14:35 22,5 C 44 % 1025,5 hPa 0,0 l/m 4,3 km/h (1 Bft) N-NW 337 9,6 C 24,1 C 3,4 km/h (1 Bft)
15.08.2013 14:40 22,7 C 44 % 1025,6 hPa 0,0 l/m 3,5 km/h (1 Bft) W-NW 292 9,8 C 24,9 C 8,7 km/h (2 Bft)
15.08.2013 14:45 22,4 C 44 % 1025,6 hPa 0,0 l/m 4,5 km/h (1 Bft) W-NW 292 9,5 C 24,2 C 8,2 km/h (2 Bft)
15.08.2013 14:50 22,5 C 43 % 1025,6 hPa 0,0 l/m 6,1 km/h (2 Bft) S-SW 202 9,3 C 23,8 C 6,6 km/h (2 Bft)
15.08.2013 14:55 22,0 C 44 % 1025,6 hPa 0,0 l/m 5,1 km/h (1 Bft) O-SO 112 9,2 C 23,9 C 2,7 km/h (1 Bft)
15.08.2013 15:00 22,4 C 44 % 1025,5 hPa 0,0 l/m 5,6 km/h (1 Bft) N-NW 337 9,5 C 23,9 C 10,3 km/h (2 Bft)
15.08.2013 15:05 22,5 C 43 % 1025,5 hPa 0,0 l/m 5,6 km/h (1 Bft) W-SW 247 9,3 C 23,9 C 2,4 km/h (1 Bft)
15.08.2013 15:10 22,0 C 44 % 1025,5 hPa 0,0 l/m 5,0 km/h (1 Bft) N-NW 337 9,2 C 24,4 C 3,2 km/h (1 Bft)
15.08.2013 15:15 22,4 C 45 % 1025,5 hPa 0,0 l/m 4,0 km/h (1 Bft) W 270 9,9 C 23,9 C 5,8 km/h (2 Bft)
15.08.2013 15:20 22,4 C 43 % 1025,5 hPa 0,0 l/m 3,9 km/h (1 Bft) W 270 9,2 C 24,7 C 6,1 km/h (2 Bft)
15.08.2013 15:25 21,5 C 45 % 1025,5 hPa 0,0 l/m 4,0 km/h (1 Bft) W-NW 292 9,1 C 25,4 C 4,3 km/h (1 Bft)
15.08.2013 15:30 22,0 C 44 % 1025,5 hPa 0,0 l/m 5,0 km/h (1 Bft) W 270 9,2 C 24,7 C 4,2 km/h (1 Bft)
15.08.2013 15:35 22,0 C 44 % 1025,5 hPa 0,0 l/m 5,6 km/h (1 Bft) N-NW 337 9,2 C 24,5 C 7,9 km/h (2 Bft)
15.08.2013 15:40 22,2 C 44 % 1025,4 hPa 0,0 l/m 5,3 km/h (1 Bft) N-NW 337 9,4 C 24,4 C 6,4 km/h (2 Bft)
15.08.2013 15:45 22,5 C 43 % 1025,4 hPa 0,0 l/m 4,7 km/h (1 Bft) W-SW 247 9,3 C 25,1 C 4,2 km/h (1 Bft)
15.08.2013 15:50 22,4 C 44 % 1025,4 hPa 0,0 l/m 4,8 km/h (1 Bft) N-NW 337 9,5 C 25,3 C 6,8 km/h (2 Bft)
15.08.2013 15:55 22,6 C 44 % 1025,4 hPa 0,0 l/m 4,5 km/h (1 Bft) W 270 9,7 C 25,4 C 6,4 km/h (2 Bft)
15.08.2013 16:00 22,7 C 44 % 1025,2 hPa 0,0 l/m 4,5 km/h (1 Bft) N-NW 337 9,8 C 25,4 C 7,9 km/h (2 Bft)
15.08.2013 16:05 22,4 C 43 % 1025,2 hPa 0,0 l/m 4,7 km/h (1 Bft) W-NW 292 9,2 C 25,2 C 2,9 km/h (1 Bft)
15.08.2013 16:10 22,0 C 43 % 1025,2 hPa 0,0 l/m 4,7 km/h (1 Bft) N-NO 22 8,8 C 25,1 C 1,9 km/h (1 Bft)
15.08.2013 16:15 22,4 C 46 % 1025,2 hPa 0,0 l/m 3,7 km/h (1 Bft) N-NW 337 10,2 C 25,7 C 6,1 km/h (2 Bft)
15.08.2013 16:20 22,6 C 44 % 1025,1 hPa 0,0 l/m 3,5 km/h (1 Bft) NO 45 9,7 C 25,8 C 4,5 km/h (1 Bft)
15.08.2013 16:25 21,8 C 45 % 1025,1 hPa 0,0 l/m 4,3 km/h (1 Bft) N-NO 22 9,3 C 25,6 C 3,7 km/h (1 Bft)
15.08.2013 16:30 21,1 C 46 % 1025,1 hPa 0,0 l/m 3,9 km/h (1 Bft) O-SO 112 9,0 C 25,5 C 2,3 km/h (1 Bft)
15.08.2013 16:35 20,9 C 48 % 1025,1 hPa 0,0 l/m 1,9 km/h (1 Bft) N 360 9,5 C 24,6 C 6,1 km/h (2 Bft)
15.08.2013 16:40 20,9 C 48 % 1024,9 hPa 0,0 l/m 1,9 km/h (1 Bft) W 270 9,5 C 25,0 C 6,0 km/h (2 Bft)
15.08.2013 16:45 20,8 C 49 % 1024,9 hPa 0,0 l/m 3,9 km/h (1 Bft) N-NO 22 9,7 C 25,3 C 4,3 km/h (1 Bft)
15.08.2013 16:50 20,8 C 48 % 1024,9 hPa 0,0 l/m 4,3 km/h (1 Bft) N-NW 337 9,4 C 25,7 C 6,6 km/h (2 Bft)
15.08.2013 16:55 20,5 C 48 % 1024,9 hPa 0,0 l/m 4,0 km/h (1 Bft) O 90 9,1 C 26,0 C 5,5 km/h (1 Bft)
15.08.2013 17:00 20,4 C 49 % 1025,1 hPa 0,0 l/m 3,7 km/h (1 Bft) NO 45 9,3 C 26,4 C 6,3 km/h (2 Bft)
15.08.2013 17:05 20,2 C 49 % 1025,1 hPa 0,0 l/m 3,1 km/h (1 Bft) N-NW 337 9,1 C 26,7 C 4,3 km/h (1 Bft)
15.08.2013 17:10 20,1 C 50 % 1025,1 hPa 0,0 l/m 2,9 km/h (1 Bft) W-SW 247 9,3 C 26,6 C 3,5 km/h (1 Bft)
15.08.2013 17:15 20,0 C 50 % 1025,1 hPa 0,0 l/m 4,2 km/h (1 Bft) W-NW 292 9,3 C 26,2 C 7,6 km/h (2 Bft)
15.08.2013 17:20 19,9 C 50 % 1024,9 hPa 0,0 l/m 3,9 km/h (1 Bft) N 360 9,2 C 26,1 C 4,8 km/h (1 Bft)
15.08.2013 17:25 19,7 C 52 % 1024,9 hPa 0,0 l/m 2,4 km/h (1 Bft) NW 315 9,6 C 26,2 C 5,8 km/h (2 Bft)
15.08.2013 17:30 19,8 C 51 % 1024,9 hPa 0,0 l/m 2,6 km/h (1 Bft) O-SO 112 9,4 C 26,1 C 0,0 km/h (0 Bft)
15.08.2013 17:35 19,8 C 51 % 1024,9 hPa 0,0 l/m 3,2 km/h (1 Bft) W-SW 247 9,4 C 25,8 C 4,3 km/h (1 Bft)
15.08.2013 17:40 19,5 C 54 % 1024,7 hPa 0,0 l/m 3,2 km/h (1 Bft) N 360 9,9 C 25,2 C 6,1 km/h (2 Bft)
15.08.2013 17:45 19,4 C 53 % 1024,7 hPa 0,0 l/m 3,5 km/h (1 Bft) W-SW 247 9,6 C 25,3 C 4,3 km/h (1 Bft)
15.08.2013 17:50 19,3 C 53 % 1024,7 hPa 0,0 l/m 2,9 km/h (1 Bft) W-NW 292 9,5 C 25,3 C 0,0 km/h (0 Bft)
15.08.2013 17:55 19,2 C 54 % 1024,7 hPa 0,0 l/m 1,9 km/h (1 Bft) N 360 9,7 C 25,3 C 0,0 km/h (0 Bft)
15.08.2013 18:00 19,4 C 55 % 1024,7 hPa 0,0 l/m 1,6 km/h (1 Bft) N-NW 337 10,1 C 25,6 C 3,7 km/h (1 Bft)
15.08.2013 18:05 19,5 C 54 % 1024,7 hPa 0,0 l/m 1,8 km/h (1 Bft) N-NW 337 9,9 C 26,2 C 0,0 km/h (0 Bft)
15.08.2013 18:10 19,4 C 53 % 1024,7 hPa 0,0 l/m 1,8 km/h (1 Bft) W-NW 292 9,6 C 26,9 C 0,0 km/h (0 Bft)
15.08.2013 18:15 19,3 C 52 % 1024,7 hPa 0,0 l/m 2,3 km/h (1 Bft) W 270 9,2 C 26,4 C 3,4 km/h (1 Bft)
15.08.2013 18:20 19,1 C 54 % 1024,4 hPa 0,0 l/m 2,3 km/h (1 Bft) W 270 9,6 C 25,1 C 1,8 km/h (1 Bft)
15.08.2013 18:25 18,9 C 56 % 1024,4 hPa 0,0 l/m 1,6 km/h (1 Bft) NW 315 9,9 C 25,5 C 0,0 km/h (0 Bft)
15.08.2013 18:30 18,9 C 56 % 1024,4 hPa 0,0 l/m 1,6 km/h (1 Bft) N 360 9,9 C 26,3 C 2,6 km/h (1 Bft)
15.08.2013 18:35 18,8 C 56 % 1024,4 hPa 0,0 l/m 1,6 km/h (1 Bft) N-NW 337 9,8 C 26,5 C 1,6 km/h (1 Bft)
15.08.2013 18:40 18,8 C 57 % 1024,1 hPa 0,0 l/m 1,9 km/h (1 Bft) W-NW 292 10,1 C 26,3 C 4,2 km/h (1 Bft)
15.08.2013 18:45 19,0 C 55 % 1024,1 hPa 0,0 l/m 2,7 km/h (1 Bft) NW 315 9,8 C 25,8 C 3,1 km/h (1 Bft)
15.08.2013 18:50 18,9 C 55 % 1024,1 hPa 0,0 l/m 2,6 km/h (1 Bft) N-NO 22 9,7 C 25,8 C 2,1 km/h (1 Bft)
15.08.2013 18:55 18,6 C 57 % 1024,1 hPa 0,0 l/m 1,9 km/h (1 Bft) NW 315 9,9 C 25,6 C 2,3 km/h (1 Bft)
15.08.2013 19:00 18,5 C 57 % 1024,0 hPa 0,0 l/m 1,9 km/h (1 Bft) O 90 9,8 C 25,6 C 1,9 km/h (1 Bft)
15.08.2013 19:05 18,3 C 57 % 1024,0 hPa 0,0 l/m 2,1 km/h (1 Bft) N-NO 22 9,6 C 25,2 C 2,6 km/h (1 Bft)
15.08.2013 19:10 18,2 C 56 % 1024,0 hPa 0,0 l/m 1,8 km/h (1 Bft) N-NW 337 9,3 C 25,2 C 4,0 km/h (1 Bft)
15.08.2013 19:15 18,3 C 58 % 1024,0 hPa 0,0 l/m 1,6 km/h (1 Bft) N-NO 22 9,9 C 24,8 C 1,6 km/h (1 Bft)
15.08.2013 19:20 18,1 C 58 % 1024,0 hPa 0,0 l/m 1,3 km/h (1 Bft) NO 45 9,7 C 24,8 C 2,9 km/h (1 Bft)
15.08.2013 19:25 18,0 C 58 % 1024,0 hPa 0,0 l/m 1,0 km/h (0 Bft) O-NO 67 9,6 C 24,4 C 0,0 km/h (0 Bft)
15.08.2013 19:30 17,9 C 58 % 1024,0 hPa 0,0 l/m 1,1 km/h (1 Bft) N-NO 22 9,5 C 24,2 C 1,8 km/h (1 Bft)
15.08.2013 19:35 17,7 C 59 % 1024,0 hPa 0,0 l/m 1,0 km/h (0 Bft) O 90 9,6 C 23,8 C 2,9 km/h (1 Bft)
15.08.2013 19:40 17,6 C 58 % 1023,9 hPa 0,0 l/m 1,0 km/h (0 Bft) O-NO 67 9,2 C 23,5 C 0,0 km/h (0 Bft)
15.08.2013 19:45 17,4 C 59 % 1023,9 hPa 0,0 l/m 0,8 km/h (0 Bft) NO 45 9,3 C 22,9 C 0,0 km/h (0 Bft)
15.08.2013 19:50 17,3 C 59 % 1023,9 hPa 0,0 l/m 0,6 km/h (0 Bft) O 90 9,2 C 22,5 C 2,1 km/h (1 Bft)
15.08.2013 19:55 16,9 C 60 % 1023,9 hPa 0,0 l/m 0,8 km/h (0 Bft) O-NO 67 9,1 C 21,6 C 3,2 km/h (1 Bft)
15.08.2013 20:00 17,0 C 60 % 1023,9 hPa 0,0 l/m 1,3 km/h (1 Bft) O-NO 67 9,2 C 20,6 C 2,9 km/h (1 Bft)
15.08.2013 20:05 16,7 C 61 % 1023,9 hPa 0,0 l/m 2,6 km/h (1 Bft) O 90 9,1 C 19,7 C 2,7 km/h (1 Bft)
15.08.2013 20:10 16,3 C 63 % 1023,9 hPa 0,0 l/m 2,3 km/h (1 Bft) NO 45 9,2 C 19,1 C 1,9 km/h (1 Bft)
15.08.2013 20:15 15,7 C 66 % 1023,9 hPa 0,0 l/m 1,3 km/h (1 Bft) O 90 9,4 C 18,2 C 0,0 km/h (0 Bft)
15.08.2013 20:20 15,1 C 67 % 1024,2 hPa 0,0 l/m 1,0 km/h (0 Bft) O-NO 67 9,0 C 17,6 C 2,1 km/h (1 Bft)
15.08.2013 20:25 15,6 C 68 % 1024,2 hPa 0,0 l/m 1,8 km/h (1 Bft) NO 45 9,7 C 16,4 C 2,4 km/h (1 Bft)
15.08.2013 20:30 15,6 C 67 % 1024,2 hPa 0,0 l/m 2,3 km/h (1 Bft) NO 45 9,5 C 15,9 C 2,7 km/h (1 Bft)
15.08.2013 20:35 15,3 C 68 % 1024,2 hPa 0,0 l/m 2,4 km/h (1 Bft) O 90 9,4 C 15,2 C 3,1 km/h (1 Bft)
15.08.2013 20:40 15,1 C 68 % 1024,3 hPa 0,0 l/m 2,9 km/h (1 Bft) O 90 9,2 C 14,9 C 2,9 km/h (1 Bft)
15.08.2013 20:45 14,8 C 69 % 1024,3 hPa 0,0 l/m 3,4 km/h (1 Bft) O-NO 67 9,2 C 14,6 C 3,5 km/h (1 Bft)
15.08.2013 20:50 15,0 C 69 % 1024,3 hPa 0,0 l/m 3,5 km/h (1 Bft) NW 315 9,4 C 14,5 C 4,0 km/h (1 Bft)
15.08.2013 20:55 15,0 C 68 % 1024,3 hPa 0,0 l/m 3,5 km/h (1 Bft) O-NO 67 9,1 C 14,6 C 2,6 km/h (1 Bft)
15.08.2013 21:00 15,0 C 69 % 1024,5 hPa 0,0 l/m 3,2 km/h (1 Bft) O-SO 112 9,4 C 14,6 C 1,9 km/h (1 Bft)
15.08.2013 21:05 14,9 C 69 % 1024,5 hPa 0,0 l/m 2,3 km/h (1 Bft) O 90 9,3 C 14,6 C 3,2 km/h (1 Bft)
15.08.2013 21:10 15,0 C 69 % 1024,5 hPa 0,0 l/m 2,7 km/h (1 Bft) NO 45 9,4 C 14,6 C 6,0 km/h (2 Bft)
15.08.2013 21:15 14,5 C 70 % 1024,5 hPa 0,0 l/m 4,5 km/h (1 Bft) NO 45 9,1 C 14,5 C 6,9 km/h (2 Bft)
15.08.2013 21:20 14,3 C 70 % 1024,4 hPa 0,0 l/m 5,0 km/h (1 Bft) NO 45 8,9 C 14,4 C 7,7 km/h (2 Bft)
15.08.2013 21:25 14,2 C 70 % 1024,4 hPa 0,0 l/m 5,1 km/h (1 Bft) O 90 8,8 C 14,0 C 5,6 km/h (1 Bft)
15.08.2013 21:30 13,8 C 71 % 1024,4 hPa 0,0 l/m 5,5 km/h (1 Bft) O-NO 67 8,6 C 13,7 C 6,0 km/h (2 Bft)
15.08.2013 21:35 13,6 C 72 % 1024,4 hPa 0,0 l/m 6,0 km/h (2 Bft) NO 45 8,6 C 13,5 C 6,9 km/h (2 Bft)
15.08.2013 21:40 13,4 C 73 % 1024,6 hPa 0,0 l/m 5,6 km/h (1 Bft) O 90 8,7 C 13,3 C 7,2 km/h (2 Bft)
15.08.2013 21:45 13,2 C 74 % 1024,6 hPa 0,0 l/m 5,3 km/h (1 Bft) O 90 8,7 C 13,2 C 5,8 km/h (2 Bft)
15.08.2013 21:50 13,2 C 74 % 1024,6 hPa 0,0 l/m 5,0 km/h (1 Bft) NO 45 8,7 C 13,0 C 5,0 km/h (1 Bft)
15.08.2013 21:55 12,7 C 76 % 1024,6 hPa 0,0 l/m 4,5 km/h (1 Bft) O-NO 67 8,6 C 12,7 C 3,5 km/h (1 Bft)
15.08.2013 22:01 12,6 C 77 % 1024,6 hPa 0,0 l/m 4,3 km/h (1 Bft) O 90 8,7 C 12,4 C 3,7 km/h (1 Bft)
15.08.2013 22:05 12,6 C 77 % 1024,6 hPa 0,0 l/m 4,5 km/h (1 Bft) NO 45 8,7 C 12,1 C 5,1 km/h (1 Bft)
15.08.2013 22:10 12,6 C 77 % 1024,6 hPa 0,0 l/m 4,8 km/h (1 Bft) O 90 8,7 C 12,0 C 5,1 km/h (1 Bft)
15.08.2013 22:15 12,2 C 78 % 1024,6 hPa 0,0 l/m 5,3 km/h (1 Bft) NO 45 8,5 C 11,8 C 6,9 km/h (2 Bft)
15.08.2013 22:20 12,3 C 79 % 1024,4 hPa 0,0 l/m 5,5 km/h (1 Bft) O 90 8,8 C 11,8 C 5,1 km/h (1 Bft)
15.08.2013 22:25 12,3 C 79 % 1024,4 hPa 0,0 l/m 4,5 km/h (1 Bft) NO 45 8,8 C 11,9 C 4,0 km/h (1 Bft)
15.08.2013 22:30 12,1 C 79 % 1024,4 hPa 0,0 l/m 3,4 km/h (1 Bft) NO 45 8,6 C 11,8 C 2,1 km/h (1 Bft)
15.08.2013 22:35 11,8 C 80 % 1024,4 hPa 0,0 l/m 2,6 km/h (1 Bft) O 90 8,5 C 11,4 C 3,2 km/h (1 Bft)
15.08.2013 22:40 11,6 C 80 % 1024,4 hPa 0,0 l/m 2,6 km/h (1 Bft) O 90 8,3 C 11,2 C 4,2 km/h (1 Bft)
15.08.2013 22:45 11,4 C 82 % 1024,4 hPa 0,0 l/m 3,5 km/h (1 Bft) O 90 8,4 C 11,1 C 4,2 km/h (1 Bft)
15.08.2013 22:50 11,5 C 82 % 1024,4 hPa 0,0 l/m 3,2 km/h (1 Bft) NO 45 8,5 C 11,0 C 0,0 km/h (0 Bft)
15.08.2013 22:55 11,0 C 82 % 1024,4 hPa 0,0 l/m 1,0 km/h (0 Bft) O 90 8,0 C 10,6 C 0,0 km/h (0 Bft)
15.08.2013 23:00 11,2 C 82 % 1024,4 hPa 0,0 l/m 0,3 km/h (0 Bft) O-SO 112 8,2 C 10,5 C 0,0 km/h (0 Bft)
15.08.2013 23:05 11,1 C 82 % 1024,4 hPa 0,0 l/m 1,0 km/h (0 Bft) O 90 8,1 C 10,3 C 2,3 km/h (1 Bft)
15.08.2013 23:10 11,1 C 83 % 1024,4 hPa 0,0 l/m 1,8 km/h (1 Bft) O 90 8,3 C 10,3 C 3,2 km/h (1 Bft)
15.08.2013 23:15 11,2 C 83 % 1024,4 hPa 0,0 l/m 2,1 km/h (1 Bft) O 90 8,4 C 10,4 C 0,0 km/h (0 Bft)
15.08.2013 23:20 10,9 C 83 % 1024,5 hPa 0,0 l/m 1,1 km/h (1 Bft) NO 45 8,1 C 10,2 C 0,0 km/h (0 Bft)
15.08.2013 23:25 10,6 C 83 % 1024,5 hPa 0,0 l/m 0,0 km/h (0 Bft) O 90 7,8 C 9,9 C 0,0 km/h (0 Bft)
15.08.2013 23:30 11,0 C 84 % 1024,5 hPa 0,0 l/m 1,3 km/h (1 Bft) O 90 8,4 C 9,8 C 5,5 km/h (1 Bft)
15.08.2013 23:35 11,2 C 85 % 1024,5 hPa 0,0 l/m 4,0 km/h (1 Bft) O 90 8,8 C 10,3 C 4,8 km/h (1 Bft)
15.08.2013 23:40 11,1 C 85 % 1024,9 hPa 0,0 l/m 4,0 km/h (1 Bft) O-SO 112 8,7 C 10,4 C 2,6 km/h (1 Bft)
15.08.2013 23:45 10,7 C 85 % 1024,9 hPa 0,0 l/m 2,4 km/h (1 Bft) O-SO 112 8,3 C 10,2 C 1,9 km/h (1 Bft)
15.08.2013 23:50 10,5 C 85 % 1024,9 hPa 0,0 l/m 1,8 km/h (1 Bft) O-SO 112 8,1 C 10,1 C 2,3 km/h (1 Bft)
15.08.2013 23:55 10,4 C 85 % 1024,9 hPa 0,0 l/m 1,9 km/h (1 Bft) O 90 8,0 C 10,1 C 3,5 km/h (1 Bft)
_ Min-Zeit 06:30 16:10 20:15 - 23:25 - - 06:30 06:35 23:25
Minimum _ 7,2 C 43 % 1023,9 hPa - 0,0 km/h (0 Bft) - - 5,3 C 7,1 C 0,0 km/h (0 Bft)
_ Max-Zeit 16:00 07:30 11:15 23:55 12:20 - - 07:55 18:10 11:25
Maximum _ 22,7 C 90 % 1026,8 hPa 0,0 l/m 6,3 km/h
W-SW (2 Bft)
- - 12,3 C 26,9 C 14,6 km/h
NW (3 Bft)
Durchschnitt _ 15,9 C 65 % 1025,1 hPa #0,0 l/m 2,5 km/h (1 Bft) O - 8,8 C 17,2 C 3,0 km/h (1 Bft)